Find INTELSAT IV F5

NORAD ID: 6052 Int'l Des: 1972-041 Owner: INTEL Country: I-INT operational
HEOCIRCULAR

Live Position

Loading 3D Globe...

About INTELSAT IV F5

Description loading...

Upcoming Passes

Passes for default location (London). Set your location on the main map for personalized predictions.

Altitude History

Loading altitude history...

Two-Line Element Set

1 6052U 72041A 26104.64386395 .00000121 00000-0 00000+0 0 9997
2 6052 5.8885 287.4297 0002728 317.7192 42.0199 1.00108048 46026
Epoch: Apr 14, 2026 • Age: 43 hours

Current Status

Altitude 35823.1 km
Velocity 3.07 km/s
Sub-Earth Point -5.69°S, 148.44°W
Type communications

Most Searched